TimeEST,TemperatureF,Dew PointF,Humidity,Sea Level PressureIn,VisibilityMPH,Wind Direction,Wind SpeedMPH,Gust SpeedMPH,PrecipitationIn,Events,Conditions,WindDirDegrees,DateUTC
12:53 AM,59.0,55.0,87,29.67,10.0,SW,10.4,-,N/A,,Clear,220,2012-12-11 05:53:00
1:53 AM,59.0,55.9,90,29.69,10.0,SW,9.2,-,N/A,,Clear,220,2012-12-11 06:53:00
2:53 AM,57.0,55.9,96,29.70,9.0,WSW,5.8,-,N/A,,Scattered Clouds,240,2012-12-11 07:53:00
3:53 AM,62.1,57.0,84,29.70,10.0,WSW,9.2,-,N/A,,Mostly Cloudy,250,2012-12-11 08:53:00
4:53 AM,61.0,55.9,83,29.75,10.0,NW,15.0,25.3,N/A,,Mostly Cloudy,320,2012-12-11 09:53:00
5:23 AM,53.6,46.4,77,29.76,10.0,NNW,16.1,26.5,N/A,,Partly Cloudy,330,2012-12-11 10:23:00
5:53 AM,52.0,44.1,74,29.78,10.0,NNW,9.2,-,N/A,,Clear,340,2012-12-11 10:53:00
6:53 AM,51.1,44.1,77,29.83,10.0,North,3.5,-,N/A,,Mostly Cloudy,350,2012-12-11 11:53:00
7:53 AM,51.1,44.1,77,29.88,10.0,NW,5.8,-,N/A,,Overcast,320,2012-12-11 12:53:00
8:42 AM,51.8,44.6,76,29.90,10.0,North,9.2,-,N/A,,Overcast,360,2012-12-11 13:42:00
8:53 AM,50.0,44.1,80,29.91,10.0,North,5.8,-,N/A,,Overcast,360,2012-12-11 13:53:00
9:53 AM,48.9,44.1,83,29.95,10.0,NNE,13.8,20.7,N/A,,Overcast,20,2012-12-11 14:53:00
10:53 AM,48.9,41.0,74,29.97,10.0,North,8.1,-,N/A,,Overcast,360,2012-12-11 15:53:00
11:53 AM,48.0,42.1,80,29.96,10.0,North,8.1,16.1,N/A,,Overcast,10,2012-12-11 16:53:00
12:53 PM,48.9,41.0,74,29.98,10.0,North,9.2,-,N/A,,Overcast,10,2012-12-11 17:53:00
1:15 PM,50.0,39.2,66,29.98,10.0,North,8.1,-,N/A,,Overcast,350,2012-12-11 18:15:00
1:53 PM,51.1,37.9,61,29.97,10.0,North,8.1,-,N/A,,Overcast,350,2012-12-11 18:53:00
2:53 PM,51.1,35.1,54,30.01,10.0,North,8.1,-,N/A,,Overcast,350,2012-12-11 19:53:00
3:53 PM,50.0,37.0,61,30.04,10.0,Calm,Calm,-,N/A,,Overcast,0,2012-12-11 20:53:00
4:53 PM,46.9,39.0,74,30.06,10.0,NE,5.8,-,N/A,,Mostly Cloudy,50,2012-12-11 21:53:00
5:53 PM,46.0,37.9,73,30.10,10.0,NNW,4.6,-,N/A,,Overcast,340,2012-12-11 22:53:00
6:53 PM,44.1,37.0,76,30.13,10.0,NNW,4.6,-,N/A,,Mostly Cloudy,330,2012-12-11 23:53:00
7:53 PM,43.0,37.0,80,30.13,10.0,North,3.5,-,N/A,,Mostly Cloudy,350,2012-12-12 00:53:00
8:53 PM,43.0,37.0,80,30.15,10.0,North,5.8,-,N/A,,Partly Cloudy,350,2012-12-12 01:53:00
9:53 PM,45.0,34.0,65,30.17,10.0,North,11.5,17.3,N/A,,Clear,360,2012-12-12 02:53:00
10:53 PM,44.1,33.1,65,30.19,10.0,North,8.1,-,N/A,,Partly Cloudy,360,2012-12-12 03:53:00
11:53 PM,43.0,32.0,65,30.20,10.0,North,8.1,-,N/A,,Mostly Cloudy,350,2012-12-12 04:53:00